sat.trackr.live / text

‹ back to catalog

STARLINK-5757

NORAD 55580 · 2023-020M

PAYLOAD ACTIVE UNKNOWN

§ Identity

Operator
Country
US
Launch date
2023-02-12
Launch site
AFETR
Launch vehicle
Mass (kg)
RCS (m²)

Purposes: comms

External: N2YO · Heavens-Above · Gunter

§ Orbital elements

Epoch: 2026-05-25T00:38:54.459744Z

Period
94.27 min
Inclination
43.0025°
Eccentricity
0.0001390
Mean motion
15.27577759 rev/d
Perigee alt
482.1 km
Apogee alt
484.0 km
Semi-major
6,861.2 km
B*
1.1473e-5
RAAN
268.4354°
Arg perigee
268.2009°
Mean anomaly
91.8683°
Rev number
18,088

§ Raw data

STARLINK-57571 55580U 23020M   26145.02701921  .00000054  00000+0  11473-4 0  99982 55580  43.0025 268.4354 0001390 268.2009  91.8683 15.27577759180886

JSON: /api/v1/satellites/55580 · /tle

For live sub-satellite position, see the globe view (requires WebGL).

§ Visibility from observer

Set your observer location to see the next 7 days of passes ≥ 10°. The values pass through the URL so the page stays shareable.

No JS? Fill the form by hand. The geolocation button needs JavaScript.